Погода в Старосубхангулове

Россия / Республика Башкортостан     53°06′07″N   57°26′29″E
темп.,
°C
ветер,
м/с
пор.,
м/с
влажн.,
%
обл.,
%
осадки,
мм/ч
давл.,
гПа
погр.,
м
17 сентября, пт
пт1723:00+6сз376389 0.0 1008753
02:00+5зсз3869100 0.0 1008874
05:00+2зсз398076 0.0 1009451
08:00+3з31088100 0.0 1010861
11:00+5зсз4881100 0.1 1010845
14:00+6зсз5774100 0.1 1011985
17:00+7зсз4770100 0.1 10121017
20:00+5зсз3881100 0.1 1013665
18 сентября, сб
сб1823:00+4з2786100 0.3 1014412
02:00+3з2792100 0.1 1014317
05:00+1зюз269799 0.1 1014144
08:00+2зюз2789100 0.0 1014258
11:00+5зсз576199 0.2 10131569
14:00+6зсз585895 0.4 10141597
17:00+6сз586187 0.6 10151455
20:00+2зсз399328 0.1 1017519
19 сентября, вс
вс1923:00+1сз398410 0.1 1018699
02:00−1з29965 0.0 1019272
05:00−2з399892 0.0 1020390
08:000зсз5107894 0.0 1020854
11:00+4зсз695990 0.1 10201224
14:00+7зсз694311 0.0 10201510
17:00+8сз59435 0.0 10201420
20:00+3сз310635 0.0 1022419
20 сентября, пн
пн2023:00−1з11840 0.0 102411
02:00−2з11935 0.0 102610
05:00−3з11955 0.0 102710
08:00−2зсз118953 0.0 102848
11:00+5ссз235023 0.0 1027748
14:00+10ссз223598 0.0 10261065
17:00+10ссз223465 0.0 10261166
20:00+3ссв1162100 0.0 102810
21 сентября, вт
вт2123:00+2в1167100 0.0 102913
02:00+1всв226793 0.0 103020
05:00+1всв2272100 0.0 103039
08:00+1всв1374100 0.0 1031107
11:00+8юв344695 0.0 1029779
14:00+11ююв3338100 0.0 10281256
17:00+10ю2242100 0.0 10281034
20:00+6ююв1154100 0.0 102819